Change the Weather History Date:

Tuesday, December 31, 2013

  Actual Average (KBJC) Record (KBJC)
Temperature  
Mean Temperature 42 °F -  
Max Temperature 58 °F 44 °F 66 °F (1996)
Min Temperature 27 °F 24 °F -17 °F (1987)
Degree Days  
Heating Degree Days 22    
Moisture  
Dew Point 18 °F    
Average Humidity 41    
Maximum Humidity 69    
Minimum Humidity 19    
Precipitation  
Precipitation 0.00 in - - ()
Sea Level Pressure  
Sea Level Pressure 29.97 in    
Wind  
Wind Speed 4 mph (SW)    
Max Wind Speed 15 mph    
Max Gust Speed 20 mph    
Visibility 10 miles    
Events      
Averages and records for this station are not official NWS values.
T = Trace of Precipitation, MM = Missing Value Source: NWS Daily Summary

Daily Weather History Graph

Daily Weather History Graph

Search for Another Location

Airport or City:

Trip Planner

Search our weather history database for the weather conditions in past years. The results will help you decide how hot, cold, wet, or windy it might be!

Date:

Astronomy

Dec. 31, 2013 Rise Set
Actual Time 7:22 AM MST 4:44 PM MST
Civil Twilight 6:51 AM MST 5:15 PM MST
Nautical Twilight 6:17 AM MST 5:49 PM MST
Astronomical Twilight 5:44 AM MST 6:22 PM MST
Moon 6:17 AM MST (12/31) 4:23 PM MST (12/31)
Length of Visible Light 10h 23m
Length of Day
9h 22m
Waning Crescent, 1% of the Moon is Illuminated
Dec 31
Waning Crescent
Jan 1
New
Jan 7
First Quarter
Jan 15
Full
Jan 23
Last Quarter

Hourly Weather History & Observations

Time (MST) Temp. Windchill Dew Point Humidity Pressure Visibility Wind Dir Wind Speed Gust Speed Precip Events Conditions
12:14 AM 28.0 °F - 16.9 °F 63% 30.06 in 10.0 mi Calm Calm - N/A   Clear
12:34 AM 27.5 °F 23.6 °F 17.6 °F 66% 30.06 in 10.0 mi SSE 3.5 mph - N/A   Clear
12:54 AM 28.9 °F - 16.9 °F 61% 30.04 in 10.0 mi Calm Calm - N/A   Clear
1:14 AM 27.3 °F 22.0 °F 18.1 °F 68% 30.04 in 10.0 mi SW 4.6 mph - N/A   Clear
1:34 AM 29.7 °F - 16.7 °F 59% 30.03 in 10.0 mi Calm Calm - N/A   Clear
1:54 AM 28.6 °F - 17.8 °F 64% 30.03 in 10.0 mi Calm Calm - N/A   Clear
2:14 AM 27.7 °F 21.3 °F 18.7 °F 69% 30.03 in 10.0 mi SSW 5.8 mph - N/A   Clear
2:34 AM 28.8 °F - 19.0 °F 67% 30.02 in 10.0 mi Calm Calm - N/A   Clear
2:54 AM 28.9 °F - 17.8 °F 63% 30.01 in 10.0 mi Calm Calm - N/A   Clear
3:14 AM 29.7 °F - 16.7 °F 59% 30.00 in 10.0 mi Calm Calm - N/A   Clear
3:34 AM 28.9 °F 21.1 °F 17.2 °F 62% 29.99 in 10.0 mi WNW 8.1 mph - N/A   Clear
3:54 AM 31.1 °F - 16.0 °F 54% 30.00 in 10.0 mi Calm Calm - N/A   Clear
4:14 AM 30.2 °F 23.4 °F 17.4 °F 59% 29.99 in 10.0 mi SSW 6.9 mph - N/A   Clear
4:34 AM 32.7 °F 25.7 °F 16.5 °F 51% 29.99 in 10.0 mi SSE 8.1 mph - N/A   Clear
4:54 AM 37.0 °F 32.4 °F 15.8 °F 42% 29.98 in 10.0 mi ENE 5.8 mph - N/A   Clear
5:14 AM 40.6 °F 38.6 °F 15.6 °F 36% 29.99 in 10.0 mi West 3.5 mph - N/A   Clear
5:34 AM 35.4 °F 30.5 °F 17.1 °F 47% 29.98 in 10.0 mi SW 5.8 mph - N/A   Clear
5:54 AM 34.7 °F - 17.4 °F 49% 29.98 in 10.0 mi Calm Calm - N/A   Clear
6:14 AM 39.9 °F - 16.5 °F 39% 29.98 in 10.0 mi Calm Calm - N/A   Clear
6:34 AM 39.2 °F 34.2 °F 16.5 °F 40% 29.98 in 10.0 mi NE 6.9 mph - N/A   Clear
6:54 AM 39.0 °F - 16.7 °F 40% 30.00 in 10.0 mi Calm Calm - N/A   Clear
7:14 AM 34.0 °F - 18.1 °F 52% 29.99 in 10.0 mi Calm Calm - N/A   Clear
7:34 AM 34.9 °F 32.0 °F 18.3 °F 51% 29.99 in 10.0 mi WSW 3.5 mph - N/A   Clear
7:54 AM 40.3 °F 34.9 °F 16.5 °F 38% 29.99 in 10.0 mi WSW 8.1 mph - N/A   Clear
8:14 AM 45.0 °F 40.6 °F 16.9 °F 32% 29.98 in 10.0 mi WSW 8.1 mph - N/A   Clear
8:34 AM 45.0 °F 42.6 °F 17.1 °F 33% 30.00 in 10.0 mi East 4.6 mph - N/A   Clear
8:54 AM 48.9 °F - 17.8 °F 29% 29.99 in 10.0 mi SE 5.8 mph - N/A   Clear
9:14 AM 49.6 °F - 17.8 °F 28% 29.99 in 10.0 mi Calm Calm - N/A   Clear
9:34 AM 52.2 °F - 16.7 °F 25% 29.99 in 10.0 mi SW 3.5 mph - N/A   Clear
9:54 AM 53.6 °F - 17.4 °F 24% 30.00 in 10.0 mi SW 4.6 mph - N/A   Clear
10:14 AM 54.3 °F - 16.0 °F 22% 30.00 in 10.0 mi Calm Calm - N/A   Clear
10:34 AM 54.5 °F - 18.0 °F 24% 30.00 in 10.0 mi NW 5.8 mph 16.1 mph N/A   Clear
10:54 AM 55.6 °F - 18.0 °F 23% 29.99 in 10.0 mi SW 8.1 mph - N/A   Clear
11:14 AM 56.1 °F - 17.1 °F 22% 29.99 in 10.0 mi ESE 3.5 mph - N/A   Clear
11:34 AM 56.7 °F - 16.3 °F 21% 29.98 in 10.0 mi Calm Calm - N/A   Clear
11:54 AM 58.1 °F - 16.2 °F 19% 29.97 in 10.0 mi South 4.6 mph - N/A   Clear
12:14 PM 57.2 °F - 15.8 °F 20% 29.96 in 10.0 mi Calm Calm - N/A   Clear
12:34 PM 57.2 °F - 15.6 °F 20% 29.96 in 10.0 mi NNE 3.5 mph - N/A   Clear
12:54 PM 57.6 °F - 17.1 °F 21% 29.94 in 10.0 mi North 6.9 mph - N/A   Clear
1:14 PM 57.9 °F - 17.4 °F 21% 29.94 in 10.0 mi NW 9.2 mph 19.6 mph N/A   Clear
1:34 PM 57.2 °F - 16.9 °F 21% 29.94 in 10.0 mi WSW 12.7 mph 17.3 mph N/A   Clear
1:54 PM 57.6 °F - 16.3 °F 20% 29.94 in 10.0 mi NW 4.6 mph - N/A   Clear
2:14 PM 56.7 °F - 16.7 °F 21% 29.94 in 10.0 mi WNW 8.1 mph - N/A   Clear
2:34 PM 56.5 °F - 16.9 °F 21% 29.95 in 10.0 mi NW 12.7 mph 18.4 mph N/A   Clear
2:54 PM 55.2 °F - 16.3 °F 22% 29.96 in 10.0 mi NNW 12.7 mph 18.4 mph N/A   Clear
3:14 PM 53.8 °F - 16.5 °F 23% 29.96 in 10.0 mi NNW 15.0 mph - N/A   Clear
3:34 PM 54.9 °F - 16.9 °F 22% 29.96 in 10.0 mi NNW 10.4 mph - N/A   Clear
3:54 PM 53.6 °F - 17.6 °F 24% 29.96 in 10.0 mi North 8.1 mph - N/A   Clear
4:14 PM 52.2 °F - 17.6 °F 26% 29.96 in 10.0 mi Calm Calm - N/A   Clear
4:34 PM 50.0 °F - 17.8 °F 28% 29.96 in 10.0 mi SSE 4.6 mph - N/A   Clear
4:54 PM 47.1 °F - 17.8 °F 31% 29.96 in 10.0 mi SSW 5.8 mph - N/A   Clear
5:14 PM 44.1 °F 40.8 °F 18.1 °F 35% 29.97 in 10.0 mi SSW 5.8 mph - N/A   Clear
5:34 PM 46.4 °F - 17.6 °F 32% 29.97 in 10.0 mi Calm Calm - N/A   Clear
5:54 PM 40.6 °F 37.5 °F 18.7 °F 41% 29.97 in 10.0 mi SE 4.6 mph - N/A   Clear
6:14 PM 41.5 °F - 19.2 °F 41% 29.96 in 10.0 mi Calm Calm - N/A   Clear
6:34 PM 35.2 °F 31.2 °F 18.5 °F 51% 29.95 in 10.0 mi ESE 4.6 mph - N/A   Clear
6:54 PM 38.5 °F 36.1 °F 19.4 °F 46% 29.96 in 10.0 mi SSE 3.5 mph - N/A   Clear
7:14 PM 38.3 °F - 20.5 °F 49% 29.96 in 10.0 mi Calm Calm - N/A   Clear
7:34 PM 36.1 °F 32.3 °F 20.8 °F 54% 29.96 in 10.0 mi South 4.6 mph - N/A   Clear
7:54 PM 38.8 °F 34.6 °F 20.7 °F 48% 29.95 in 10.0 mi SSW 5.8 mph - N/A   Clear
8:14 PM 44.4 °F 42.9 °F 18.7 °F 36% 29.94 in 10.0 mi SSW 3.5 mph - N/A   Scattered Clouds
8:34 PM 38.7 °F 35.2 °F 20.8 °F 49% 29.94 in 10.0 mi WSW 4.6 mph - N/A   Scattered Clouds
8:54 PM 39.0 °F 36.8 °F 20.7 °F 48% 29.94 in 10.0 mi SSE 3.5 mph - N/A   Scattered Clouds
9:14 PM 37.4 °F 32.8 °F 20.3 °F 50% 29.93 in 10.0 mi West 5.8 mph - N/A   Scattered Clouds
9:34 PM 35.6 °F 28.6 °F 20.8 °F 55% 29.93 in 10.0 mi ESE 9.2 mph - N/A   Scattered Clouds
9:54 PM 37.6 °F 32.3 °F 20.5 °F 50% 29.91 in 10.0 mi SE 6.9 mph - N/A   Scattered Clouds
10:14 PM 36.7 °F 32.9 °F 20.7 °F 52% 29.93 in 10.0 mi West 4.6 mph - N/A   Mostly Cloudy
10:34 PM 34.9 °F 30.8 °F 21.4 °F 58% 29.91 in 10.0 mi South 4.6 mph - N/A   Scattered Clouds
10:54 PM 35.1 °F 32.2 °F 21.0 °F 57% 29.92 in 10.0 mi SW 3.5 mph - N/A   Scattered Clouds
11:14 PM 33.6 °F - 21.7 °F 62% 29.92 in 10.0 mi Calm Calm - N/A   Scattered Clouds
11:34 PM 34.2 °F - 21.6 °F 60% 29.91 in 10.0 mi Calm Calm - N/A   Mostly Cloudy
11:54 PM 33.4 °F 27.3 °F 22.5 °F 64% 29.90 in 10.0 mi SW 6.9 mph - N/A   Overcast